User: anonymous   Login
Location: Pradons
(44.4746°N, 4.3578°E)
Time: 12:24:05
(UTC+00:00)
Language:

Cosmos 2151 - Orbit

View from above orbital plane
View from above orbital plane
View from above satellite
View from above satellite

Ground track
Ground track

The orbit data is extracted from the following two-line orbital elements,

1 21422U 91042A   20190.91755504 +.00000132 +00000-0 +10403-4 0  9993
2 21422 082.5006 262.5058 0014852 155.6560 204.5365 14.92139838554085
Epoch (UTC): 08 July 2020 22:01:16
Eccentricity: 0.0014852
inclination: 82.5006°
perigee height: 581 km
apogee height: 601 km
right ascension of ascending node: 262.5058°
argument of perigee: 155.6560°
revolutions per day: 14.92139838
mean anomaly at epoch: 204.5365°
orbit number at epoch: 55408

The dashed part of the orbit path shows where the satellite is in the earth's shadow,  

DLR